User: anonymous   Login
Location: Unspecified
(0.0000°N, 0.0000°E)
Time: 18:57:44
(UTC+00:00)
Language:

GALILEO 8 (264) - Orbit

View from above orbital plane
View from above orbital plane
View from above satellite
View from above satellite

Ground track
Ground track

The orbit data is extracted from the following two-line orbital elements,

1 40545U 15017B   21024.24335619 -.00000049  00000-0  00000-0 0  9998
2 40545  56.5616  35.3438 0003313 246.6924 113.3177  1.70475277 36280
Epoch (UTC): 24 January 2021 05:50:25
Eccentricity: 0.0003313
inclination: 56.5616°
perigee height: 23212 km
apogee height: 23231 km
right ascension of ascending node: 35.3438°
argument of perigee: 246.6924°
revolutions per day: 1.70475277
mean anomaly at epoch: 113.3177°
orbit number at epoch: 3628

The dashed part of the orbit path shows where the satellite is in the earth's shadow,  

DLR